STARLINK-35696

Last updated on Tue Dec 16 2025 00:02:05 GMT+0000 (Coordinated Universal Time)

1 66489U 25263E 25349.07134844 .00080873 00000+0 13764-2 0 9993 2 66489 43.0005 111.5201 0006521 54.5598 305.5870 15.50430672 5925
UTC large
Height (km)
Speed (km/s)
/
Latitude / Longitude
Inclination (degrees)
Orbital Period (minutes)
Azimuth
Elevation
Range (km)
Doppler Factor

Next 0 passes for location: London (51.5072 / 0.1276)

Sorry there are no passes over London.